When you browse on this site, cookies collect data to enhance your experience and personalize the content and advertising you see.
Visit our Privacy Policy to learn more. By continuing to use the site, you agree to this use of cookies and data.
  • In Deutschland
  • Länderverzeichnis
  • Für 7 Tage
  • Wassertemperatur
  • Satellitenkarten
  • Wetterkarte
  • Widgets
  • user-avatar
    Anmelden

    Stündliche Wetter Armak

    Heute, 18 Februar, Montag

    Zeit Temperatur Niederschläge Wind Luftdruck Luftfeuchtigkeit
    00:00 -13°C° 0 mm 1 m/S 681 mmHg 76%
    01:00 -14°C° 0 mm 1 m/S 681 mmHg 77%
    02:00 -14°C° 0 mm 1 m/S 680 mmHg 76%
    03:00 -15°C° 0 mm 1 m/S 680 mmHg 76%
    04:00 -15°C° 0 mm 1 m/S 680 mmHg 75%
    05:00 -15°C° 0 mm 1 m/S 680 mmHg 74%
    06:00 -16°C° 0 mm 1 m/S 680 mmHg 72%
    07:00 -17°C° 0 mm 2 m/S 679 mmHg 67%
    08:00 -13°C° 0 mm 1 m/S 680 mmHg 61%
    09:00 -11°C° 0 mm 1 m/S 680 mmHg 56%
    10:00 -9°C° 0 mm 1 m/S 680 mmHg 51%
    11:00 -8°C° 0 mm 1 m/S 680 mmHg 47%
    12:00 -6°C° 0 mm 1 m/S 679 mmHg 44%
    13:00 -3°C° 0 mm 1 m/S 680 mmHg 40%
    14:00 -4°C° 0 mm 1 m/S 679 mmHg 45%
    15:00 -4°C° 0 mm 1 m/S 679 mmHg 49%
    16:00 -4°C° 0 mm 1 m/S 679 mmHg 53%
    17:00 -7°C° 0 mm 1 m/S 679 mmHg 59%
    18:00 -9°C° 0 mm 0 m/S 679 mmHg 64%
    19:00 -11°C° 0 mm 0 m/S 679 mmHg 69%
    20:00 -12°C° 0 mm 1 m/S 679 mmHg 70%
    21:00 -12°C° 0 mm 1 m/S 679 mmHg 72%
    22:00 -12°C° 0 mm 1 m/S 679 mmHg 73%
    23:00 -13°C° 0 mm 1 m/S 679 mmHg 74%

    Morgen, 19 Februar, Dienstag

    Zeit Temperatur Niederschläge Wind Luftdruck Luftfeuchtigkeit
    00:00 -13°C° 0 mm 1 m/S 679 mmHg 75%
    01:00 -13°C° 0 mm 1 m/S 680 mmHg 76%
    02:00 -13°C° 0 mm 1 m/S 680 mmHg 76%
    03:00 -13°C° 0 mm 1 m/S 680 mmHg 76%
    04:00 -13°C° 0 mm 1 m/S 680 mmHg 76%
    05:00 -13°C° 0 mm 1 m/S 680 mmHg 75%
    06:00 -13°C° 0 mm 1 m/S 681 mmHg 74%
    07:00 -14°C° 0 mm 1 m/S 681 mmHg 72%
    08:00 -11°C° 0 mm 1 m/S 682 mmHg 65%
    09:00 -9°C° 0 mm 1 m/S 682 mmHg 58%
    10:00 -6°C° 0 mm 1 m/S 683 mmHg 51%
    11:00 -4°C° 0 mm 1 m/S 683 mmHg 47%
    12:00 -2°C° 0 mm 1 m/S 684 mmHg 44%
    13:00 0°C° 0 mm 1 m/S 684 mmHg 41%
    14:00 0°C° 0 mm 1 m/S 684 mmHg 45%
    15:00 -1°C° 0 mm 1 m/S 684 mmHg 49%
    16:00 -1°C° 0 mm 1 m/S 684 mmHg 52%
    17:00 -3°C° 0 mm 1 m/S 684 mmHg 58%
    18:00 -6°C° 0 mm 0 m/S 684 mmHg 63%
    19:00 -8°C° 0 mm 0 m/S 684 mmHg 69%
    20:00 -9°C° 0 mm 0 m/S 684 mmHg 69%
    21:00 -9°C° 0 mm 0 m/S 685 mmHg 70%
    22:00 -9°C° 0 mm 1 m/S 685 mmHg 70%
    23:00 -9°C° 0 mm 1 m/S 685 mmHg 71%

    übermorgen, 20 Februar, Mittwoch

    Zeit Temperatur Niederschläge Wind Luftdruck Luftfeuchtigkeit
    00:00 -10°C° 0 mm 1 m/S 685 mmHg 72%
    01:00 -10°C° 0 mm 1 m/S 685 mmHg 73%
    02:00 -10°C° 0 mm 1 m/S 685 mmHg 73%
    03:00 -10°C° 0 mm 1 m/S 685 mmHg 74%
    04:00 -11°C° 0 mm 1 m/S 685 mmHg 75%
    05:00 -11°C° 0 mm 1 m/S 685 mmHg 75%
    06:00 -11°C° 0 mm 1 m/S 686 mmHg 75%
    07:00 -11°C° 0 mm 1 m/S 686 mmHg 75%
    08:00 -9°C° 0 mm 1 m/S 686 mmHg 69%
    09:00 -7°C° 0 mm 0 m/S 687 mmHg 63%
    10:00 -5°C° 0 mm 0 m/S 688 mmHg 57%
    11:00 -3°C° 0 mm 1 m/S 688 mmHg 53%
    12:00 -1°C° 0 mm 1 m/S 687 mmHg 50%
    13:00 0°C° 0 mm 1 m/S 687 mmHg 46%
    14:00 0°C° 0 mm 1 m/S 687 mmHg 50%
    15:00 -1°C° 0 mm 1 m/S 687 mmHg 53%
    16:00 -1°C° 0 mm 1 m/S 687 mmHg 57%
    17:00 -3°C° 0 mm 1 m/S 687 mmHg 62%
    18:00 -6°C° 0 mm 1 m/S 688 mmHg 67%
    19:00 -8°C° 0 mm 0 m/S 688 mmHg 71%
    20:00 -8°C° 0 mm 1 m/S 688 mmHg 73%
    21:00 -8°C° 0 mm 1 m/S 688 mmHg 74%
    22:00 -9°C° 0 mm 1 m/S 688 mmHg 75%
    23:00 -9°C° 0 mm 1 m/S 688 mmHg 77%

    21 Februar, Donnerstag

    Zeit Temperatur Niederschläge Wind Luftdruck Luftfeuchtigkeit
    00:00 -9°C° 0 mm 1 m/S 689 mmHg 78%
    01:00 -9°C° 0 mm 1 m/S 689 mmHg 80%
    02:00 -10°C° 0 mm 1 m/S 688 mmHg 80%
    03:00 -10°C° 0 mm 1 m/S 688 mmHg 81%
    04:00 -10°C° 0 mm 1 m/S 688 mmHg 81%
    05:00 -10°C° 0 mm 1 m/S 688 mmHg 81%
    06:00 -11°C° 0 mm 1 m/S 688 mmHg 80%
    07:00 -11°C° 0 mm 1 m/S 689 mmHg 80%
    08:00 -9°C° 0 mm 1 m/S 689 mmHg 73%
    09:00 -6°C° 0 mm 1 m/S 689 mmHg 66%
    10:00 -4°C° 0 mm 0 m/S 690 mmHg 59%
    11:00 -3°C° 0 mm 0 m/S 689 mmHg 56%
    12:00 -1°C° 0 mm 1 m/S 689 mmHg 53%
    13:00 +1°C° 0 mm 1 m/S 689 mmHg 50%
    14:00 0°C° 0 mm 1 m/S 688 mmHg 52%
    15:00 0°C° 0 mm 1 m/S 688 mmHg 55%
    16:00 -1°C° 0 mm 1 m/S 688 mmHg 58%
    17:00 -3°C° 0 mm 1 m/S 688 mmHg 66%
    18:00 -6°C° 0 mm 0 m/S 687 mmHg 74%
    19:00 -8°C° 0 mm 0 m/S 687 mmHg 81%
    20:00 -8°C° 0 mm 0 m/S 687 mmHg 83%
    21:00 -9°C° 0 mm 0 m/S 687 mmHg 84%
    22:00 -9°C° 0 mm 0 m/S 687 mmHg 85%
    23:00 -10°C° 0 mm 0 m/S 687 mmHg 86%

    22 Februar, Freitag

    Zeit Temperatur Niederschläge Wind Luftdruck Luftfeuchtigkeit
    00:00 -10°C° 0 mm 0 m/S 687 mmHg 87%
    01:00 -10°C° 0 mm 0 m/S 687 mmHg 88%
    02:00 -10°C° 0 mm 0 m/S 687 mmHg 88%
    03:00 -11°C° 0 mm 1 m/S 687 mmHg 87%
    04:00 -11°C° 0 mm 1 m/S 687 mmHg 87%
    05:00 -11°C° 0 mm 1 m/S 687 mmHg 86%
    06:00 -11°C° 0 mm 1 m/S 688 mmHg 85%
    07:00 -11°C° 0 mm 1 m/S 688 mmHg 84%
    08:00 -9°C° 0 mm 1 m/S 689 mmHg 75%
    09:00 -7°C° 0 mm 1 m/S 689 mmHg 67%
    10:00 -4°C° 0 mm 1 m/S 690 mmHg 59%
    11:00 -2°C° 0 mm 1 m/S 690 mmHg 58%
    12:00 -1°C° 0 mm 1 m/S 690 mmHg 58%
    13:00 +1°C° 0 mm 1 m/S 690 mmHg 57%
    14:00 0°C° 0 mm 1 m/S 690 mmHg 60%
    15:00 0°C° 0 mm 1 m/S 690 mmHg 64%
    16:00 0°C° 0 mm 1 m/S 690 mmHg 67%
    17:00 -2°C° 0 mm 1 m/S 690 mmHg 72%
    18:00 -3°C° 0 mm 1 m/S 690 mmHg 78%
    19:00 -6°C° 0 mm 1 m/S 690 mmHg 83%
    20:00 -6°C° 0 mm 1 m/S 691 mmHg 84%
    21:00 -6°C° 0 mm 1 m/S 691 mmHg 85%
    22:00 -7°C° 0 mm 1 m/S 691 mmHg 86%
    23:00 -7°C° 0 mm 1 m/S 691 mmHg 87%

    23 Februar, Samstag

    Zeit Temperatur Niederschläge Wind Luftdruck Luftfeuchtigkeit
    00:00 -8°C° 0 mm 1 m/S 691 mmHg 87%
    01:00 -8°C° 0 mm 1 m/S 691 mmHg 87%
    02:00 -8°C° 0 mm 1 m/S 691 mmHg 87%
    03:00 -9°C° 0 mm 1 m/S 691 mmHg 87%
    04:00 -9°C° 0 mm 1 m/S 691 mmHg 88%
    05:00 -9°C° 0 mm 1 m/S 691 mmHg 87%
    06:00 -10°C° 0 mm 1 m/S 691 mmHg 87%
    07:00 -10°C° 0 mm 1 m/S 691 mmHg 87%
    08:00 -8°C° 0 mm 1 m/S 692 mmHg 81%
    09:00 -6°C° 0 mm 0 m/S 692 mmHg 75%
    10:00 -5°C° 0 mm 0 m/S 693 mmHg 70%
    11:00 -3°C° 0 mm 1 m/S 692 mmHg 67%
    12:00 -2°C° 0 mm 1 m/S 692 mmHg 65%
    13:00 -1°C° 0 mm 1 m/S 692 mmHg 63%
    14:00 -1°C° 0 mm 1 m/S 691 mmHg 64%
    15:00 -1°C° 0 mm 1 m/S 691 mmHg 66%
    16:00 -1°C° 0 mm 1 m/S 691 mmHg 68%
    17:00 -3°C° 0 mm 1 m/S 691 mmHg 75%
    18:00 -4°C° 0 mm 1 m/S 691 mmHg 82%
    19:00 -7°C° 0 mm 0 m/S 691 mmHg 89%
    20:00 -7°C° 0 mm 0 m/S 691 mmHg 90%
    21:00 -8°C° 0 mm 0 m/S 691 mmHg 91%
    22:00 -8°C° 0 mm 0 m/S 691 mmHg 92%
    23:00 -9°C° 0 mm 0 m/S 691 mmHg 91%
    Mehr zeigen